Find Starlink 1265

NORAD ID: 45406 Int'l Des: 2020-019 Owner: SPXS Country: US Constellation: starlink operational
LEOCIRCULAR

現在のビュー

3D地球を読み込み中...

About Starlink 1265

Starlink 1265 (NORAD 45406) is a starlink constellation satellite (v1.0) launched Mar 18, 2020 by SPXS of US. It operates in LEO, CIRCULAR orbit with a mass of 260.00 kg.

次回通過

Passes for default location (London). Set your location on the main map for personalized predictions.

高度履歴

Loading altitude history...

軌道要素

1 45406U 20019AY 26263.59780483 .00036733 00000-0 68112-3 0 9997
2 45406 53.1509 291.8290 0005027 19.8745 340.2459 15.48631318359984
Epoch: Sep 20, 2026 • Age: 7 hours

現在のステータス

高度 440.5 km
遠地点 / 近地点 N/A
速度 7.65 km/s
衛星直下点 -52.31°S, 139.67°W
打ち上げ日 Mar 18, 2020
運用期間 6.5 years
タイプ internet

技術仕様

分類 Payload
質量 260.00 kg
乾燥質量 248.00 kg
長さ 0.20 m
スパン 9.00 m
形状 ? Box + pan
製造者 SPXS
バスタイプ Starlink
フェーズステータス In Orbit
所有者/国 SPXS/US

Most Searched